THY456 UBBB-UTDD

Flight info

Callsign THY456
Flight time 2h 4m
Altitude 35000
Route NAMAS DCT LARGI DCT KRS DCT TUGTA DCT BABUM DCT BIBIM DCT ABEKO DCT KEKAL DCT BODBA DCT ABDAN DCT TENGA DCT DUTAR DCT LBA DCT MANAT/K0861F350 DCT ERNUX DCT INDUD DCT RASID DCT RAPAT DCT ETVIN DCT PR PR8
Aircraft B738/M-SDE2E3FGHIRWXY/LB1

Departure

Time 2026-04-29 18:41
Airport Heydar Aliyev International Airport (UBBB)

Arrival

Time 2026-04-29 20:45
Airport Dushanbe International Airport (UTDD)
Time Latitude Longitude Altitude Speed Heading
2026-04-29 18:20 40.46514 50.05032 -6 ft 0 kts 95°
2026-04-29 18:29 40.46516 50.05017 -6 ft 2 kts 95°
2026-04-29 18:29 40.46518 50.04997 -6 ft 2 kts 113°
2026-04-29 18:30 40.46525 50.04980 -6 ft 2 kts 128°
2026-04-29 18:30 40.46536 50.04966 -6 ft 2 kts 146°
2026-04-29 18:30 40.46549 50.04957 -6 ft 2 kts 162°
2026-04-29 18:30 40.46564 50.04953 -6 ft 2 kts 179°
2026-04-29 18:31 40.46579 50.04956 -6 ft 2 kts 195°
2026-04-29 18:31 40.46587 50.04959 -6 ft 0 kts 206°
2026-04-29 18:31 40.46593 50.04964 -6 ft 0 kts 208°
2026-04-29 18:33 40.46592 50.04962 -6 ft 1 kts 208°
2026-04-29 18:33 40.46578 50.04953 -6 ft 3 kts 208°
2026-04-29 18:34 40.46553 50.04936 -6 ft 4 kts 209°
2026-04-29 18:34 40.46536 50.04913 -6 ft 5 kts 238°
2026-04-29 18:34 40.46521 50.04834 -6 ft 7 kts 264°
2026-04-29 18:34 40.46518 50.04753 -7 ft 9 kts 268°
2026-04-29 18:35 40.46516 50.04660 -7 ft 11 kts 268°
2026-04-29 18:35 40.46509 50.04547 -9 ft 13 kts 265°
2026-04-29 18:35 40.46503 50.04410 -11 ft 15 kts 267°
2026-04-29 18:35 40.46496 50.04259 -13 ft 16 kts 262°
2026-04-29 18:36 40.46431 50.04189 -14 ft 12 kts 169°
2026-04-29 18:36 40.46354 50.04225 -15 ft 11 kts 156°
2026-04-29 18:36 40.46286 50.04257 -15 ft 9 kts 160°
2026-04-29 18:36 40.46225 50.04286 -16 ft 8 kts 161°
2026-04-29 18:37 40.46171 50.04311 -16 ft 7 kts 159°
2026-04-29 18:37 40.46128 50.04332 -16 ft 5 kts 159°
2026-04-29 18:37 40.46099 50.04348 -16 ft 3 kts 157°
2026-04-29 18:37 40.46081 50.04357 -16 ft 2 kts 157°
2026-04-29 18:38 40.46049 50.04375 -15 ft 8 kts 159°
2026-04-29 18:38 40.45973 50.04409 -15 ft 14 kts 162°
2026-04-29 18:38 40.45856 50.04458 -16 ft 18 kts 161°
2026-04-29 18:38 40.45821 50.04474 -16 ft 0 kts 160°
2026-04-29 18:39 40.45795 50.04487 -16 ft 6 kts 159°
2026-04-29 18:39 40.45731 50.04518 -16 ft 12 kts 169°
2026-04-29 18:39 40.45660 50.04442 -17 ft 17 kts 249°
2026-04-29 18:39 40.45622 50.04271 -19 ft 20 kts 258°
2026-04-29 18:40 40.45660 50.04098 -19 ft 22 kts 326°
2026-04-29 18:40 40.45813 50.04044 -19 ft 24 kts 348°
2026-04-29 18:40 40.46122 50.03950 -16 ft 80 kts 346°
2026-04-29 18:40 40.46903 50.03707 -12 ft 147 kts 346°
2026-04-29 18:41 40.50427 50.02652 1841 ft 185 kts 342°
2026-04-29 18:41 40.51741 50.02211 2162 ft 207 kts 343°
2026-04-29 18:42 40.53186 50.01736 2667 ft 223 kts 343°
2026-04-29 18:42 40.54743 50.01220 3256 ft 239 kts 343°
2026-04-29 18:42 40.56392 50.00804 3932 ft 252 kts 356°
2026-04-29 18:42 40.58109 50.01308 4688 ft 265 kts 23°
2026-04-29 18:43 40.59639 50.02698 5493 ft 275 kts 40°
2026-04-29 18:43 40.60737 50.04762 6240 ft 285 kts 68°
2026-04-29 18:43 40.61027 50.07364 7035 ft 290 kts 94°
2026-04-29 18:43 40.60788 50.09957 7811 ft 294 kts 98°
2026-04-29 18:44 40.60512 50.12668 8049 ft 302 kts 98°
2026-04-29 18:44 40.60242 50.15416 8016 ft 295 kts 98°
2026-04-29 18:44 40.59973 50.18055 8023 ft 293 kts 98°
2026-04-29 18:44 40.59697 50.20725 8021 ft 294 kts 98°
2026-04-29 18:45 40.59421 50.23384 8063 ft 302 kts 98°
2026-04-29 18:45 40.59131 50.26160 8766 ft 307 kts 98°
2026-04-29 18:45 40.58830 50.28924 9731 ft 304 kts 102°
2026-04-29 18:45 40.58155 50.31515 10507 ft 303 kts 118°
2026-04-29 18:46 40.57192 50.34043 10899 ft 320 kts 119°
2026-04-29 18:46 40.56197 50.36743 11225 ft 339 kts 118°
2026-04-29 18:46 40.55170 50.39568 11953 ft 344 kts 118°
2026-04-29 18:46 40.54125 50.42416 12674 ft 350 kts 118°
2026-04-29 18:47 40.53077 50.45266 13384 ft 354 kts 118°
2026-04-29 18:47 40.51995 50.48217 14095 ft 359 kts 118°
2026-04-29 18:47 40.50906 50.51190 14778 ft 363 kts 118°
2026-04-29 18:47 40.49805 50.54191 15451 ft 368 kts 118°
2026-04-29 18:48 40.48698 50.57204 16106 ft 372 kts 118°
2026-04-29 18:48 40.47579 50.60247 16735 ft 376 kts 118°
2026-04-29 18:48 40.46428 50.63373 17351 ft 381 kts 118°
2026-04-29 18:48 40.45276 50.66498 17983 ft 384 kts 119°
2026-04-29 18:49 40.44108 50.69664 18546 ft 389 kts 119°
2026-04-29 18:49 40.42935 50.72841 19280 ft 387 kts 119°
2026-04-29 18:49 40.41796 50.75939 20418 ft 372 kts 119°
2026-04-29 18:49 40.40686 50.78958 21223 ft 366 kts 120°
2026-04-29 18:50 40.39576 50.81964 21801 ft 366 kts 120°
2026-04-29 18:50 40.38461 50.84965 22268 ft 369 kts 120°
2026-04-29 18:50 40.37347 50.87977 22717 ft 372 kts 119°
2026-04-29 18:50 40.36339 50.91111 23175 ft 376 kts 112°
2026-04-29 18:51 40.35648 50.94452 23570 ft 383 kts 104°
2026-04-29 18:51 40.35152 50.97879 23982 ft 386 kts 103°
2026-04-29 18:51 40.34637 51.01331 24408 ft 388 kts 104°
2026-04-29 18:51 40.34089 51.04779 24837 ft 390 kts 104°
2026-04-29 18:52 40.33537 51.08271 25207 ft 393 kts 103°
2026-04-29 18:52 40.32995 51.11766 25602 ft 395 kts 103°
2026-04-29 18:52 40.32444 51.15335 25978 ft 398 kts 103°
2026-04-29 18:52 40.31894 51.18886 26312 ft 401 kts 103°
2026-04-29 18:53 40.31339 51.22467 26672 ft 403 kts 103°
2026-04-29 18:53 40.30780 51.26082 27018 ft 406 kts 103°
2026-04-29 18:53 40.30224 51.29677 27363 ft 408 kts 103°
2026-04-29 18:53 40.29660 51.33318 27683 ft 411 kts 103°
2026-04-29 18:54 40.29086 51.37019 28006 ft 413 kts 103°
2026-04-29 18:54 40.28510 51.40725 28321 ft 416 kts 103°
2026-04-29 18:54 40.27937 51.44409 28667 ft 417 kts 103°
2026-04-29 18:54 40.27351 51.48161 28952 ft 420 kts 103°
2026-04-29 18:55 40.26780 51.51865 29218 ft 423 kts 102°
2026-04-29 18:55 40.26234 51.55646 29496 ft 425 kts 102°
2026-04-29 18:55 40.25693 51.59504 29792 ft 427 kts 102°
2026-04-29 18:55 40.25153 51.63299 30074 ft 429 kts 102°
2026-04-29 18:56 40.24604 51.67104 30366 ft 430 kts 103°
2026-04-29 18:56 40.24046 51.70968 30589 ft 433 kts 103°
2026-04-29 18:56 40.23476 51.74883 30830 ft 435 kts 103°
2026-04-29 18:56 40.22902 51.78741 31076 ft 437 kts 103°
2026-04-29 18:57 40.22313 51.82672 31298 ft 439 kts 103°
2026-04-29 18:57 40.21724 51.86594 31545 ft 441 kts 103°
2026-04-29 18:57 40.21149 51.90486 31747 ft 444 kts 103°
2026-04-29 18:57 40.20558 51.94482 32001 ft 445 kts 103°
2026-04-29 18:58 40.19966 51.98453 32196 ft 447 kts 103°
2026-04-29 18:58 40.19364 52.02441 32445 ft 448 kts 103°
2026-04-29 18:58 40.18760 52.06450 32699 ft 449 kts 103°
2026-04-29 18:58 40.18163 52.10437 32922 ft 451 kts 103°
2026-04-29 18:59 40.17562 52.14429 33087 ft 453 kts 103°
2026-04-29 18:59 40.16947 52.18483 33339 ft 454 kts 103°
2026-04-29 18:59 40.16336 52.22516 33508 ft 456 kts 103°
2026-04-29 18:59 40.15711 52.26603 33664 ft 459 kts 103°
2026-04-29 19:00 40.15072 52.30677 33884 ft 459 kts 103°
2026-04-29 19:00 40.14429 52.34735 34125 ft 460 kts 103°
2026-04-29 19:00 40.13781 52.38855 34324 ft 461 kts 103°
2026-04-29 19:00 40.13135 52.42969 34470 ft 463 kts 103°
2026-04-29 19:01 40.12496 52.47088 34655 ft 464 kts 103°
2026-04-29 19:01 40.11863 52.51174 34862 ft 465 kts 103°
2026-04-29 19:01 40.11209 52.55344 35050 ft 466 kts 103°
2026-04-29 19:01 40.10566 52.59457 35074 ft 472 kts 103°
2026-04-29 19:02 40.09477 52.66543 35075 ft 481 kts 103°
2026-04-29 19:02 40.07927 52.76624 35074 ft 494 kts 103°
2026-04-29 19:03 40.06527 52.85496 35074 ft 503 kts 103°
2026-04-29 19:03 40.05093 52.94439 35073 ft 505 kts 104°
2026-04-29 19:04 40.03684 53.03366 35073 ft 505 kts 101°
2026-04-29 19:04 40.02808 53.12483 35073 ft 507 kts 97°
2026-04-29 19:05 40.01987 53.21580 35074 ft 505 kts 98°
2026-04-29 19:05 40.01061 53.30661 35074 ft 507 kts 99°
2026-04-29 19:06 40.00137 53.39704 35074 ft 506 kts 98°
2026-04-29 19:07 39.98747 53.53318 35074 ft 506 kts 98°
2026-04-29 19:07 39.97813 53.62397 35074 ft 507 kts 98°
2026-04-29 19:08 39.96880 53.71478 35074 ft 506 kts 99°
2026-04-29 19:08 39.95956 53.80584 35074 ft 508 kts 99°
2026-04-29 19:09 39.95013 53.89659 35074 ft 506 kts 99°
2026-04-29 19:09 39.94057 53.98698 35074 ft 505 kts 99°
2026-04-29 19:10 39.93084 54.07754 35074 ft 507 kts 99°
2026-04-29 19:10 39.92107 54.16832 35074 ft 507 kts 99°
2026-04-29 19:11 39.91121 54.25873 35074 ft 507 kts 99°
2026-04-29 19:11 39.90109 54.34915 35074 ft 506 kts 99°
2026-04-29 19:12 39.89042 54.43979 35072 ft 506 kts 102°
2026-04-29 19:12 39.87336 54.52733 35074 ft 503 kts 108°
2026-04-29 19:13 39.85439 54.61535 35074 ft 505 kts 107°
2026-04-29 19:13 39.83598 54.70336 35074 ft 504 kts 108°
2026-04-29 19:14 39.81721 54.79100 35074 ft 503 kts 108°
2026-04-29 19:14 39.80159 54.86373 35074 ft 504 kts 108°
2026-04-29 19:15 39.78278 54.95119 35074 ft 504 kts 108°
2026-04-29 19:15 39.76391 55.03896 35074 ft 504 kts 108°
2026-04-29 19:16 39.74818 55.11182 35074 ft 507 kts 108°
2026-04-29 19:16 39.72278 55.22947 35075 ft 509 kts 107°
2026-04-29 19:17 39.71641 55.25895 35077 ft 508 kts 108°
2026-04-29 19:17 39.70054 55.33201 35085 ft 507 kts 107°
2026-04-29 19:18 39.67150 55.46425 35101 ft 508 kts 107°
2026-04-29 19:19 39.62611 55.66924 35101 ft 509 kts 108°
2026-04-29 19:19 39.60993 55.74212 35101 ft 507 kts 108°
2026-04-29 19:20 39.59027 55.82938 35101 ft 508 kts 108°
2026-04-29 19:20 39.56712 55.93202 35101 ft 508 kts 108°
2026-04-29 19:21 39.54762 56.01937 35101 ft 507 kts 108°
2026-04-29 19:21 39.52811 56.10733 35101 ft 508 kts 108°
2026-04-29 19:22 39.50841 56.19520 35098 ft 508 kts 108°
2026-04-29 19:22 39.48860 56.28226 35088 ft 508 kts 108°
2026-04-29 19:23 39.46876 56.36955 35079 ft 507 kts 108°
2026-04-29 19:23 39.44895 56.45702 35074 ft 508 kts 108°
2026-04-29 19:24 39.42902 56.54437 35074 ft 508 kts 108°
2026-04-29 19:24 39.40892 56.63164 35074 ft 508 kts 108°
2026-04-29 19:25 39.38878 56.71891 35073 ft 508 kts 109°
2026-04-29 19:25 39.36858 56.80645 35074 ft 507 kts 109°
2026-04-29 19:26 39.34715 56.89233 35073 ft 507 kts 111°
2026-04-29 19:26 39.32454 56.97883 35050 ft 508 kts 110°
2026-04-29 19:27 39.30239 57.06501 35035 ft 509 kts 110°
2026-04-29 19:27 39.28001 57.15148 35029 ft 510 kts 110°
2026-04-29 19:28 39.25748 57.23786 35021 ft 510 kts 110°
2026-04-29 19:28 39.23859 57.31026 35008 ft 509 kts 110°
2026-04-29 19:29 39.21238 57.41097 34993 ft 509 kts 110°
2026-04-29 19:29 39.18992 57.49729 34993 ft 509 kts 110°
2026-04-29 19:30 39.16728 57.58316 34992 ft 509 kts 110°
2026-04-29 19:30 39.14461 57.66872 34993 ft 507 kts 111°
2026-04-29 19:31 39.12180 57.75452 34993 ft 509 kts 111°
2026-04-29 19:31 39.09890 57.84066 34992 ft 510 kts 111°
2026-04-29 19:32 39.07585 57.92719 34992 ft 509 kts 111°
2026-04-29 19:32 39.05306 58.01252 34993 ft 509 kts 111°
2026-04-29 19:33 39.03005 58.09846 34993 ft 509 kts 111°
2026-04-29 19:33 39.00703 58.18433 34993 ft 507 kts 110°
2026-04-29 19:34 38.98405 58.26938 34993 ft 505 kts 111°
2026-04-29 19:34 38.96104 58.35412 34993 ft 504 kts 110°
2026-04-29 19:35 38.93815 58.43887 34993 ft 501 kts 110°
2026-04-29 19:35 38.91528 58.52294 34993 ft 500 kts 110°
2026-04-29 19:36 38.89209 58.60720 34992 ft 498 kts 111°
2026-04-29 19:36 38.86330 58.68733 34994 ft 495 kts 119°
2026-04-29 19:37 38.83209 58.76584 34993 ft 496 kts 118°
2026-04-29 19:37 38.80156 58.84447 34993 ft 496 kts 118°
2026-04-29 19:38 38.77044 58.92337 34993 ft 497 kts 118°
2026-04-29 19:38 38.73933 59.00190 34992 ft 497 kts 118°
2026-04-29 19:39 38.70834 59.08028 34993 ft 497 kts 118°
2026-04-29 19:39 38.67701 59.15947 34993 ft 498 kts 118°
2026-04-29 19:40 38.64604 59.23781 34993 ft 496 kts 118°
2026-04-29 19:40 38.61591 59.31723 34991 ft 499 kts 112°
2026-04-29 19:40 38.60587 59.36000 34992 ft 500 kts 101°
2026-04-29 19:41 38.60260 59.40363 34994 ft 499 kts 88°
2026-04-29 19:41 38.61137 59.49118 34992 ft 499 kts 79°
2026-04-29 19:42 38.62187 59.57849 34993 ft 497 kts 80°
2026-04-29 19:42 38.63192 59.66613 34993 ft 498 kts 80°
2026-04-29 19:43 38.64247 59.75328 34993 ft 499 kts 80°
2026-04-29 19:43 38.65299 59.84091 34993 ft 499 kts 80°
2026-04-29 19:44 38.66305 59.92811 34993 ft 498 kts 80°
2026-04-29 19:44 38.67332 60.01574 34991 ft 499 kts 80°
2026-04-29 19:45 38.68385 60.10361 34952 ft 499 kts 80°
2026-04-29 19:45 38.69413 60.19130 34912 ft 498 kts 80°
2026-04-29 19:46 38.70407 60.27848 34884 ft 499 kts 81°
2026-04-29 19:46 38.71404 60.36648 34884 ft 499 kts 80°
2026-04-29 19:47 38.72409 60.45467 34884 ft 499 kts 80°
2026-04-29 19:47 38.73394 60.54216 34885 ft 500 kts 80°
2026-04-29 19:48 38.74382 60.63005 34884 ft 499 kts 80°
2026-04-29 19:48 38.75362 60.71768 34885 ft 499 kts 81°
2026-04-29 19:49 38.76340 60.80577 34885 ft 500 kts 81°
2026-04-29 19:49 38.77073 60.89424 34884 ft 500 kts 89°
2026-04-29 19:49 38.76836 60.93846 34882 ft 499 kts 101°
2026-04-29 19:50 38.75932 60.98134 34889 ft 499 kts 109°
2026-04-29 19:50 38.73691 61.06558 34885 ft 502 kts 109°
2026-04-29 19:51 38.71557 61.15083 34884 ft 503 kts 109°
2026-04-29 19:51 38.69368 61.23564 34885 ft 505 kts 110°
2026-04-29 19:52 38.67161 61.32089 34905 ft 504 kts 107°
2026-04-29 19:52 38.66519 61.36494 34911 ft 505 kts 93°
2026-04-29 19:52 38.66476 61.40969 34916 ft 506 kts 89°
2026-04-29 19:53 38.67010 61.49967 34912 ft 506 kts 80°
2026-04-29 19:53 38.68140 61.58840 34912 ft 505 kts 79°
2026-04-29 19:54 38.69745 61.72089 34912 ft 504 kts 80°
2026-04-29 19:54 38.70817 61.80892 34912 ft 505 kts 80°
2026-04-29 19:55 38.71915 61.89755 34911 ft 505 kts 79°
2026-04-29 19:55 38.73014 61.98641 34912 ft 505 kts 80°
2026-04-29 19:56 38.74093 62.07503 34911 ft 504 kts 80°
2026-04-29 19:56 38.75158 62.16312 34912 ft 505 kts 79°
2026-04-29 19:57 38.76054 62.23746 34910 ft 505 kts 79°
2026-04-29 19:57 38.77284 62.34070 34906 ft 504 kts 80°
2026-04-29 19:58 38.78310 62.42916 34900 ft 505 kts 80°
2026-04-29 19:58 38.79337 62.51784 34893 ft 504 kts 80°
2026-04-29 19:59 38.80370 62.60694 34887 ft 505 kts 80°
2026-04-29 19:59 38.81393 62.69609 34885 ft 505 kts 81°
2026-04-29 20:00 38.82422 62.78498 34885 ft 504 kts 80°
2026-04-29 20:00 38.83458 62.87357 34885 ft 504 kts 81°
2026-04-29 20:01 38.84482 62.96252 34885 ft 506 kts 81°
2026-04-29 20:01 38.85490 63.05175 34884 ft 508 kts 80°
2026-04-29 20:02 38.86455 63.14116 34883 ft 509 kts 84°
2026-04-29 20:02 38.86327 63.21663 34886 ft 510 kts 95°
2026-04-29 20:03 38.85656 63.32222 34884 ft 509 kts 94°
2026-04-29 20:03 38.85214 63.41291 34885 ft 509 kts 93°
2026-04-29 20:04 38.84829 63.50328 34885 ft 510 kts 93°
2026-04-29 20:04 38.84403 63.59392 34885 ft 509 kts 93°
2026-04-29 20:05 38.84000 63.68424 34886 ft 509 kts 94°
2026-04-29 20:05 38.83587 63.77506 34885 ft 510 kts 94°
2026-04-29 20:06 38.83191 63.86531 34885 ft 509 kts 93°
2026-04-29 20:06 38.82791 63.95604 34885 ft 510 kts 93°
2026-04-29 20:07 38.82366 64.04677 34884 ft 510 kts 94°
2026-04-29 20:07 38.81921 64.13716 34885 ft 509 kts 93°
2026-04-29 20:08 38.81570 64.21208 34885 ft 509 kts 94°
2026-04-29 20:08 38.81090 64.31779 34884 ft 510 kts 93°
2026-04-29 20:09 38.80720 64.40848 34885 ft 509 kts 93°
2026-04-29 20:09 38.80291 64.49885 34884 ft 510 kts 93°
2026-04-29 20:10 38.79844 64.58928 34885 ft 509 kts 93°
2026-04-29 20:10 38.79382 64.67943 34885 ft 509 kts 94°
2026-04-29 20:11 38.78930 64.77008 34885 ft 510 kts 94°
2026-04-29 20:11 38.78440 64.86032 34885 ft 510 kts 94°
2026-04-29 20:12 38.77939 64.95051 34884 ft 507 kts 95°
2026-04-29 20:12 38.77387 65.04002 34884 ft 506 kts 95°
2026-04-29 20:13 38.76821 65.12964 34885 ft 506 kts 95°
2026-04-29 20:13 38.76263 65.21940 34884 ft 506 kts 95°
2026-04-29 20:14 38.75727 65.30919 34885 ft 506 kts 94°
2026-04-29 20:14 38.75279 65.39880 34884 ft 506 kts 94°
2026-04-29 20:15 38.74803 65.48815 34884 ft 505 kts 94°
2026-04-29 20:15 38.74286 65.57809 34884 ft 506 kts 94°
2026-04-29 20:16 38.73745 65.66796 34884 ft 506 kts 95°
2026-04-29 20:16 38.73202 65.75709 34885 ft 505 kts 95°
2026-04-29 20:17 38.72656 65.84666 34885 ft 507 kts 95°
2026-04-29 20:17 38.72110 65.93608 34884 ft 505 kts 95°
2026-04-29 20:18 38.71540 66.02608 34889 ft 506 kts 95°
2026-04-29 20:18 38.70974 66.11500 34919 ft 506 kts 95°
2026-04-29 20:19 38.70371 66.20491 34950 ft 505 kts 96°
2026-04-29 20:19 38.69686 66.29430 34966 ft 506 kts 96°
2026-04-29 20:20 38.69017 66.38346 34966 ft 505 kts 95°
2026-04-29 20:20 38.68393 66.47269 34966 ft 506 kts 96°
2026-04-29 20:21 38.67749 66.56210 34966 ft 506 kts 96°
2026-04-29 20:21 38.67119 66.65167 34966 ft 506 kts 96°
2026-04-29 20:22 38.66504 66.74130 34966 ft 506 kts 96°
2026-04-29 20:22 38.65878 66.83048 34965 ft 505 kts 96°
2026-04-29 20:23 38.65233 66.92024 34966 ft 506 kts 96°
2026-04-29 20:23 38.64568 67.00931 34966 ft 505 kts 96°
2026-04-29 20:24 38.63931 67.09843 34966 ft 502 kts 95°
2026-04-29 20:24 38.63332 67.18649 34966 ft 501 kts 95°
2026-04-29 20:25 38.62698 67.27516 34966 ft 500 kts 95°
2026-04-29 20:25 38.62044 67.36343 34940 ft 501 kts 95°
2026-04-29 20:26 38.61711 67.40788 34569 ft 506 kts 95°
2026-04-29 20:26 38.61372 67.45257 34165 ft 503 kts 95°
2026-04-29 20:26 38.61036 67.49662 33767 ft 500 kts 95°
2026-04-29 20:26 38.60697 67.54073 33368 ft 498 kts 95°
2026-04-29 20:27 38.60357 67.58467 32969 ft 496 kts 95°
2026-04-29 20:27 38.60128 67.61411 32702 ft 497 kts 95°
2026-04-29 20:27 38.59676 67.67206 32175 ft 497 kts 96°
2026-04-29 20:27 38.59332 67.71582 31773 ft 494 kts 96°
2026-04-29 20:28 38.58987 67.75944 31228 ft 491 kts 96°
2026-04-29 20:28 38.58646 67.80238 30409 ft 494 kts 96°
2026-04-29 20:28 38.58298 67.84605 29530 ft 498 kts 95°
2026-04-29 20:28 38.57945 67.89008 28783 ft 497 kts 95°
2026-04-29 20:29 38.57595 67.93344 28260 ft 491 kts 95°
2026-04-29 20:29 38.57246 67.97649 27698 ft 487 kts 95°
2026-04-29 20:29 38.56899 68.01919 27154 ft 482 kts 95°
2026-04-29 20:29 38.56552 68.06171 26616 ft 478 kts 95°
2026-04-29 20:30 38.56206 68.10378 26072 ft 473 kts 95°
2026-04-29 20:30 38.55864 68.14532 25531 ft 469 kts 95°
2026-04-29 20:30 38.55526 68.18618 25004 ft 465 kts 95°
2026-04-29 20:30 38.55187 68.22688 24479 ft 460 kts 95°
2026-04-29 20:31 38.54849 68.26731 23954 ft 456 kts 95°
2026-04-29 20:31 38.54512 68.30749 23432 ft 452 kts 95°
2026-04-29 20:31 38.54180 68.34695 22915 ft 448 kts 95°
2026-04-29 20:31 38.53863 68.38607 22399 ft 443 kts 93°
2026-04-29 20:32 38.53787 68.42505 21894 ft 434 kts 87°
2026-04-29 20:32 38.53880 68.46317 21143 ft 429 kts 86°
2026-04-29 20:32 38.53961 68.50048 20455 ft 420 kts 87°
2026-04-29 20:32 38.54017 68.53729 19724 ft 412 kts 87°
2026-04-29 20:33 38.54070 68.57348 18935 ft 406 kts 87°
2026-04-29 20:33 38.54127 68.60936 18076 ft 402 kts 87°
2026-04-29 20:33 38.54171 68.64458 17152 ft 400 kts 89°
2026-04-29 20:33 38.53769 68.67966 16072 ft 402 kts 109°
2026-04-29 20:34 38.52385 68.70982 15173 ft 395 kts 134°
2026-04-29 20:34 38.50274 68.73032 14851 ft 374 kts 150°
2026-04-29 20:34 38.47975 68.74337 14562 ft 354 kts 167°
2026-04-29 20:34 38.45613 68.74577 14384 ft 330 kts 186°
2026-04-29 20:35 38.43486 68.73799 14221 ft 306 kts 213°
2026-04-29 20:35 38.42012 68.72043 14141 ft 282 kts 234°
2026-04-29 20:35 38.40883 68.70106 14025 ft 268 kts 238°
2026-04-29 20:35 38.40112 68.68033 13913 ft 251 kts 259°
2026-04-29 20:36 38.40055 68.65908 13801 ft 234 kts 276°
2026-04-29 20:36 38.40247 68.63873 13572 ft 224 kts 285°
2026-04-29 20:36 38.40839 68.62101 13232 ft 219 kts 306°
2026-04-29 20:36 38.41945 68.60793 12778 ft 220 kts 324°
2026-04-29 20:37 38.43109 68.59533 12305 ft 220 kts 314°
2026-04-29 20:37 38.44116 68.58074 11825 ft 219 kts 310°
2026-04-29 20:37 38.44904 68.56438 11353 ft 218 kts 290°
2026-04-29 20:37 38.45296 68.54628 11084 ft 210 kts 283°
2026-04-29 20:38 38.45531 68.52800 10655 ft 210 kts 277°
2026-04-29 20:38 38.45720 68.50949 10123 ft 212 kts 289°
2026-04-29 20:38 38.46585 68.49501 9597 ft 209 kts 329°
2026-04-29 20:38 38.47922 68.48830 9113 ft 209 kts 345°
2026-04-29 20:39 38.49357 68.48608 8568 ft 211 kts
2026-04-29 20:39 38.50792 68.48911 8124 ft 209 kts
2026-04-29 20:39 38.52183 68.48957 8081 ft 190 kts
2026-04-29 20:39 38.53369 68.49638 8096 ft 195 kts 43°
2026-04-29 20:40 38.54169 68.51044 7962 ft 203 kts 65°
2026-04-29 20:40 38.54389 68.52847 7418 ft 208 kts 92°
2026-04-29 20:40 38.54352 68.54642 6909 ft 200 kts 89°
2026-04-29 20:40 38.54369 68.56384 6381 ft 193 kts 89°
2026-04-29 20:41 38.54372 68.58069 5892 ft 185 kts 89°
2026-04-29 20:41 38.54375 68.59646 5610 ft 173 kts 89°
2026-04-29 20:41 38.54378 68.61189 5401 ft 177 kts 90°
2026-04-29 20:41 38.54380 68.62753 5191 ft 176 kts 90°
2026-04-29 20:42 38.54381 68.64325 4987 ft 176 kts 90°
2026-04-29 20:42 38.54383 68.65869 4800 ft 169 kts 90°
2026-04-29 20:42 38.54384 68.67346 4613 ft 164 kts 90°
2026-04-29 20:42 38.54384 68.68810 4406 ft 166 kts 90°
2026-04-29 20:43 38.54379 68.70301 4168 ft 166 kts 90°
2026-04-29 20:43 38.54374 68.71770 3948 ft 165 kts 90°
2026-04-29 20:43 38.54368 68.73228 3731 ft 165 kts 90°
2026-04-29 20:43 38.54362 68.74686 3513 ft 164 kts 91°
2026-04-29 20:44 38.54357 68.76144 3296 ft 164 kts 91°
2026-04-29 20:44 38.54351 68.77595 3079 ft 164 kts 91°
2026-04-29 20:44 38.54344 68.79063 2875 ft 163 kts 91°
2026-04-29 20:44 38.54336 68.80489 2661 ft 162 kts 91°
2026-04-29 20:45 38.54333 68.81876 2585 ft 139 kts 91°
2026-04-29 20:45 38.54332 68.82902 2584 ft 92 kts 90°
2026-04-29 20:45 38.54327 68.83518 2583 ft 36 kts 89°
2026-04-29 20:45 38.54327 68.83600 2583 ft 0 kts 90°